Regional Weather Roundup
Issued by NWS

Home | Current Version | Previous Version | Graphics & Text | Print | Product List | Glossary On
Versions: 1 2 3 4 5 6 7 8 9 10 11 12 13 14 15 16 17 18 19 20 21 22 23 24 25 26 27 28 29 30 31 32 33 34 35 36 37 38 39 40 41 42 43 44 45 46 47 48 49 50
000
ASUS43 KTOP 232059
RWRKS

WEATHER ROUNDUP FOR KANSAS
NATIONAL WEATHER SERVICE GOODLAND KS
400 PM CDT WED APR 23 2014

NOTE:  "FAIR" INDICATES FEW OR NO CLOUDS BELOW 12,000 FEET WITH NO
SIGNIFICANT WEATHER AND/OR OBSTRUCTIONS TO VISIBILITY.

KSZ001>006-013>018-027>032-041>047-232200-
NORTHWEST KANSAS

CITY           SKY/WX    TMP DP  RH WIND       PRES   REMARKS
GOODLAND       SUNNY     80  40  23 NE22G32   29.54S
HAYS           CLOUDY   N/A N/A N/A S36G43    29.55F
HILL CITY      CLOUDY    86  50  28 S23G36    29.51F
RUSSELL        CLOUDY    81  48  31 S37G47    29.55F
$$

KSZ061>065-074>080-084>089-232200-
SOUTHWEST KANSAS

CITY           SKY/WX    TMP DP  RH WIND       PRES   REMARKS
DODGE CITY     CLOUDY    79  49  34 S31G40    29.60F
ELKHART          N/A     84  37  18 S17         N/A
GARDEN CITY    CLOUDY    84  50  30 S32G44    29.55F
GREAT BEND     CLOUDY    81  52  36 S30G38    29.57F
LIBERAL        CLOUDY    82  52  34 S32G40    29.59F
$$

KSZ066>073-081>083-090>101-232200-
SOUTHEAST KANSAS

CITY           SKY/WX    TMP DP  RH WIND       PRES   REMARKS
CHANUTE        SUNNY     82  47  29 S18       29.79F
COFFEYVILLE    SUNNY     82  49  31 S17G25    29.79F
HUTCHINSON     CLOUDY    83  46  27 S30G36    29.68F
MEDICINE LODGE   N/A     80  53  39 S17G25    29.66F
NEWTON         PTSUNNY   84  43  23 S26G41    29.73F
PARSONS        SUNNY     83  46  27 S13G25    29.80F
WICHITA INTL   PTSUNNY   87  45  23 S26G35    29.69F
WICHITA JABRA  MOSUNNY   85  45  24 S26G33    29.70F
$$

KSZ007>012-019>026-033>040-048>060-102>105-232200-
NORTHEAST KANSAS

CITY           SKY/WX    TMP DP  RH WIND       PRES   REMARKS
CONCORDIA      CLOUDY    81  49  32 S25G36    29.60F
EMPORIA        SUNNY     82  46  28 S23G37    29.72F
LAWRENCE       PTSUNNY   78  45  30 SE20G29   29.79F
MANHATTAN      CLOUDY    84  44  24 S20G28    29.66F
OLATHE IND     MOSUNNY   74  44  34 SE22G29   29.81F
OLATHE EXE     MOSUNNY   71  45  39 SE16G28   29.81F
SALINA         CLOUDY    84  47  27 S23G39    29.61F
TOPEKA BILLARD PTSUNNY   80  46  30 S18G25    29.76F
TOPEKA FORBES  PTSUNNY   78  45  30 S22G29    29.75F
$$



USA.gov is the U.S. government's official web portal to all federal, state and local government web resources and services.